Location: Unspecified
(30.2330°N, 120.0460°E)
Time: 15:27:00
(UTC+00:00)

Daily predictions for brighter satellites

Satellite Brightness Start Highest point End
(mag) Time Altitude Azimuth Time Altitude Azimuth Time Altitude Azimuth
ERS-2 3.3 12:01:29 14° SSW 12:04:17 41° W 12:07:46 10° NNW
Cosmos 1892 2.5 12:02:51 10° N 12:06:45 76° E 12:07:11 66° SE
Cosmos 2341 Rocket 3.9 12:00:31 10° S 12:06:53 81° E 12:13:15 10° N
GPS 2-05 Rocket1 2.8 12:05:26 10° WNW 12:08:33 72° W 12:08:33 72° W
ARGOS 4.2 12:12:30 27° ENE 12:12:30 27° ENE 12:16:37 10° NNE
SL-24 R/B - RUBIN 2 3.7 12:11:08 10° NNW 12:15:22 54° ENE 12:15:22 54° ENE
Cosmos 2218 Rocket 4.2 12:14:25 41° SE 12:15:49 48° E 12:21:55 10° NNE
Meteor 1-27 4.3 12:11:07 10° S 12:16:54 79° W 12:22:37 10° N
ATLAS 2A CENTAUR R/B 3.7 12:15:01 10° W 12:17:39 21° SW 12:17:39 21° SW
deb Centaur AC-2 4.1 12:14:07 10° W 12:18:36 89° SSW 12:19:18 66° E
Cosmos 1151 Rocket 3.1 12:19:20 58° NE 12:19:20 58° NE 12:22:57 10° NNE
Sich 1 3.6 12:16:03 10° NNW 12:20:13 55° W 12:21:55 32° SSW
Cosmos 1980 3.5 12:15:11 10° SSW 12:20:51 79° ESE 12:26:32 10° NNE
GEOS 3 Rocket 3.5 12:19:20 10° NE 12:24:40 78° ESE 12:29:51 10° SSW
Cosmos 2333 Rocket 2.9 12:20:18 10° SW 12:25:50 54° WNW 12:31:23 10° N
YAOGAN 6 4.4 12:26:30 23° SW 12:27:42 28° W 12:30:51 10° NW
Cosmos 1939 Rocket 4.4 12:28:54 25° SW 12:30:16 32° W 12:33:45 10° NNW
Cosmos 2366 rocket 3.9 12:30:31 57° ESE 12:30:58 59° E 12:37:05 10° NNE
Delta 128 4.5 12:26:29 10° W 12:32:09 59° S 12:32:53 55° SSE
Cosmos 2228 Rocket 3.1 12:32:51 75° W 12:32:51 75° W 12:37:14 10° N
SL-8 R/B 4.4 12:29:27 10° WSW 12:34:06 52° NW 12:36:38 25° NNE
ATLAS 2A CENTAUR R/B 3.8 12:19:17 10° SW 12:37:12 48° SSE 12:39:23 43° SE
Cosmos 1633 Rocket 3.9 12:34:00 10° NNW 12:38:09 46° W 12:38:50 42° WSW
Meteor 2-10 Rocket 4.4 12:42:41 41° NE 12:42:41 41° NE 12:46:40 10° NNE
NOSS 0 Rocket 4.4 12:35:03 10° SSW 12:41:06 60° WNW 12:47:13 10° NNE
Cosmos 1515 Rocket 4.0 12:40:56 57° W 12:41:10 58° W 12:45:34 10° N
USA 267 3.1 12:34:50 10° NE 12:41:24 89° SE 12:47:56 10° SW
SL-8 Rocket 4.0 12:38:22 32° S 12:41:33 81° W 12:47:53 10° N
Spot 2 Rocket 4.2 12:42:11 39° SW 12:43:36 50° W 12:48:32 10° NNW
Cosmos 1844 3.8 12:40:47 10° NNW 12:46:28 71° WSW 12:47:04 65° SSW
Centaur D-1A AC-31 2.4 12:32:20 10° WSW 12:47:08 53° S 12:47:08 53° S
Cosmos 1844 Rocket 3.3 12:42:28 10° NNW 12:47:55 50° WSW 12:49:08 43° SW
Cosmos 2237 Rocket 2.6 12:43:27 10° SSW 12:48:59 61° WNW 12:54:33 10° NNE
Cosmos 2219 Rocket 4.2 12:46:20 10° WSW 12:51:02 27° WNW 12:55:47 10° N
Resurs 01 Rocket 3.6 12:52:01 20° SW 12:53:31 23° W 12:57:05 10° NW
Cosmos 2278 Rocket 2.8 12:58:15 10° NNW 13:02:25 47° N 13:02:25 47° N
H-2A R/B 3.2 13:14:09 36° N 13:14:09 36° N 13:17:05 10° N
SL-16 R/B 4.1 13:40:53 22° N 13:40:53 22° N 13:42:48 10° NNE
ATLAS 2AS CENTAUR R/B 3.4 13:39:47 10° NW 13:46:06 51° W 13:46:06 51° W
Cosmos 2344 4.3 14:11:45 47° N 14:11:45 47° N 14:17:39 10° NNE
SL-16 R/B 4.2 17:33:59 28° NNE 17:33:59 28° NNE 17:37:16 10° N
Cosmos 2082 Rocket 4.1 18:00:15 24° NNE 18:00:15 24° NNE 18:02:25 10° NNE
CZ-2D R/B 4.2 17:57:33 10° NNE 17:59:21 22° NNE 17:59:21 22° NNE
ARIANE 5 R/B 4.3 18:18:28 10° NNE 18:20:52 28° NNE 18:20:52 28° NNE
ATLAS 3B R/B 3.9 18:28:47 32° SE 18:29:45 33° ESE 18:35:56 10° NE
Cosmos 2279 Rocket 4.3 18:36:00 61° ENE 18:36:00 61° ENE 18:41:30 10° NNE
ADEOS II 3.4 18:32:41 10° NNE 18:37:08 35° E 18:37:08 35° E
Cosmos 1833 Rocket 4.4 18:40:44 23° NNW 18:40:44 23° NNW 18:43:14 10° N
ADEOS 4.5 18:39:52 10° NNE 18:43:28 45° NNE 18:43:28 45° NNE
Resurs 1-4 Rocket 4.1 18:42:46 10° N 18:44:26 19° NNW 18:44:26 19° NNW
Lacrosse 4 Rocket 4.4 18:43:41 10° NNW 18:43:47 11° N 18:43:47 11° N
Cosmos 2026 Rocket 4.1 18:45:39 10° N 18:51:16 71° N 18:51:16 71° N
Timation 2 Rocket 4.3 18:52:45 53° ESE 18:53:08 54° ESE 18:58:58 10° NNE
Hubble Space Telescope 3.6 18:58:40 12° ESE 18:58:40 12° ESE 18:58:57 10° ESE
USA 215 3.1 18:48:45 10° NE 18:55:17 78° NW 18:55:25 78° WNW
OAO 3 Rocket 4.1 19:01:08 44° ENE 19:01:08 44° ENE 19:04:40 10° E
Meteosat 1 Rocket2 4.2 19:01:03 64° SSE 19:01:03 64° SSE 19:09:58 10° E
Cosmos 841 Rocket 4.1 19:04:13 47° ESE 19:04:37 48° ESE 19:09:35 10° NNE
Meteor 1-21 4.4 19:08:18 60° SE 19:09:08 69° E 19:14:45 10° NNE
SL-16 R/B 4.4 19:19:04 15° NW 19:19:04 15° NW 19:20:18 10° NW
Cosmos 1655 Rocket 3.9 19:08:45 10° N 19:15:09 88° W 19:17:07 48° S
Cosmos 1842 4.5 19:18:22 38° NNE 19:18:22 38° NNE 19:20:52 10° N
Cosmos 2058 Rocket 3.3 19:18:51 10° N 19:23:14 66° E 19:23:47 60° SE
USA 238 3.6 19:24:15 54° SW 19:26:01 83° WNW 19:32:57 10° NNE
USA 238 DEB 3.6 19:24:16 54° SW 19:26:01 82° WNW 19:32:58 10° NNE
SL-8 R/B 4.0 19:27:04 28° NNW 19:29:31 64° NE 19:34:18 10° ESE
Cosmos 540 Rocket 4.3 19:28:04 26° SSE 19:30:34 46° ESE 19:35:28 10° NNE
Cosmos 1763 Rocket 3.6 19:33:09 55° WNW 19:33:13 56° WNW 19:38:26 10° N
DNEPR-1 R/B 3.8 19:34:41 50° SSE 19:35:16 56° ESE 19:39:29 10° NE
Cosmos 1626 Rocket 3.8 19:35:06 44° SSE 19:36:16 65° E 19:40:32 10° NNE
Cosmos 1980 Rocket 2.1 19:34:14 10° NNW 19:39:47 64° WSW 19:45:20 10° S
Cosmos 1805 3.1 19:36:02 10° N 19:39:54 88° NE 19:39:54 88° NE
Palapa 6 Rocket 4.5 19:41:01 27° S 19:41:01 27° S 19:44:52 10° SE
Cosmos 1378 4.2 19:40:35 25° SSE 19:42:16 43° E 19:45:50 10° NNE
Cosmos 1697 Rocket 4.5 19:38:21 10° NW 19:39:43 16° NW 19:39:43 16° NW
Cosmos 2228 3.1 19:39:29 10° NNW 19:43:10 55° WNW 19:43:10 55° WNW
Cosmos 1898 Rocket 3.4 19:39:30 10° NNW 19:44:41 68° WSW 19:49:52 10° S
Meteor 1-22 Rocket 4.4 19:40:52 10° NNW 19:46:35 53° W 19:48:37 36° SSW
Cosmos 1758 4.0 19:44:43 10° N 19:48:36 54° E 19:52:29 10° SSE
SL-16 R/B 3.4 19:43:52 10° N 19:49:17 44° ENE 19:54:40 10° SE
SJ 16-02 4.1 19:49:46 10° NNE 19:53:01 20° ENE 19:56:17 10° ESE
SEDSat Delta rocket 4.0 19:49:46 32° W 19:53:06 81° N 19:59:57 10° E
Cosmos 1937 Rocket 3.3 19:53:53 10° NNW 19:59:03 71° WSW 20:04:08 10° S
Meteor 2-11 Rocket 4.5 19:57:28 24° SSW 20:01:12 60° W 20:07:17 10° N
Cosmos 858 Rocket 4.5 19:57:13 10° NNW 20:02:17 56° WSW 20:07:19 10° S
NOSS 3-2 (C) 3.4 19:59:14 21° SSW 20:03:14 76° ESE 20:09:27 10° NNE
CZ-4B R/B 2.8 19:59:51 10° N 20:04:04 81° W 20:06:17 25° SSW
Cosmos 2322 Rocket 2.7 20:01:07 10° NNW 20:06:42 61° ENE 20:12:13 10° SSE
Okean O Rocket 1.8 20:11:38 10° NNE 20:15:59 73° ESE 20:20:18 10° S
Cosmos 2150 Rocket 4.0 20:10:52 10° NNW 20:16:18 70° WSW 20:21:41 10° S
Cosmos 836 Rocket 4.4 20:12:26 16° SSW 20:16:41 75° WNW 20:21:53 10° NNE
ADEOS II 3.4 20:12:58 10° NNW 20:16:52 22° WNW 20:18:06 20° W
Cosmos 990 Rocket 4.2 20:13:33 10° NNW 20:18:25 44° WSW 20:23:18 10° S
ATLAS 3B R/B 3.3 20:16:04 22° WSW 20:20:16 40° NW 20:26:49 10° NNE
Meteor PRIRODA 3.9 20:17:25 10° NNE 20:21:05 71° E 20:24:47 10° S
NOSS 3-2 (A) 3.6 20:18:11 22° SW 20:21:52 52° WNW 20:28:00 10° NNE
Cosmos 2298 Rocket 4.1 20:17:16 10° NNW 20:22:25 51° WSW 20:27:31 10° S
Cosmos 1825 Rocket 3.8 20:21:44 10° S 20:26:02 72° E 20:30:20 10° N
Cosmos 1733 3.3 20:23:49 10° NNW 20:27:34 51° W 20:31:19 10° S
CZ-4B R/B 3.3 20:23:06 10° NNE 20:28:41 83° ESE 20:34:06 10° SSW
Cosmos 1553 Rocket 4.2 20:27:28 10° S 20:33:50 79° E 20:40:15 10° N
PSLV R/B 3.2 20:32:18 23° W 20:33:55 56° NNW 20:36:53 10° NE
Hubble Space Telescope 2.1 20:34:03 17° WSW 20:35:49 23° SSW 20:39:06 10° SSE
Cosmos 1470 2.9 20:35:34 10° NNW 20:39:25 49° W 20:43:14 10° SSW
Meteor 2-5 Rocket 3.8 20:34:00 10° S 20:39:30 85° E 20:45:04 10° N
OAO 3 Rocket 3.3 20:38:59 10° WNW 20:43:33 56° SSW 20:48:13 10° SE
CENTAUR R/B 2.9 20:38:01 10° SSW 20:43:37 62° ESE 20:49:55 10° NE
CZ-4B DEB 4.4 20:39:53 10° N 20:45:18 56° WNW 20:50:40 10° SSW
CRYOSAT 2 4.5 20:44:34 10° S 20:49:16 52° W 20:54:01 10° NNW
Cosmos 1953 Rocket 3.6 20:45:49 10° S 20:50:17 85° W 20:54:47 10° N
Delta 2 Rocket 4.0 20:46:51 12° WSW 20:52:14 90° SSE 20:57:31 10° ENE
Cosmos 1707 4.0 20:54:32 10° SW 20:57:30 21° W 21:00:31 10° NNW
Cosmos 44 3.7 20:54:45 10° NW 20:59:52 48° WSW 21:05:02 10° S
Cosmos 1953 3.6 20:57:42 10° NW 21:00:46 21° W 21:03:49 10° SW
Cosmos 1812 Rocket 4.4 20:57:29 10° NNW 21:01:21 29° W 21:05:10 10° SSW
ATLAS CENTAUR Rocket 4.2 21:01:26 10° SSE 21:02:57 12° SE 21:04:41 10° ESE
Cosmos 1400 Rocket 2.7 20:59:47 10° S 21:03:39 82° W 21:07:35 10° N
Cosmos 1758 Rocket 3.9 21:02:15 10° SSW 21:06:19 41° W 21:10:26 10° N
USA 267 4.3 21:01:47 10° ESE 21:08:03 51° NE 21:14:21 10° NNW
